Regional Weather Roundup
Issued by NWS Wakefield, VA

Home | Current Version | Previous Version | Text Only | Print | Product List | Glossary Off
Versions: 1 2 3 4 5 6 7 8 9 10 11 12 13 14 15 16 17 18 19 20 21 22 23 24 25 26 27 28 29 30 31 32 33 34 35 36 37 38 39 40 41 42 43 44 45 46 47 48 49 50

000
ASUS41 KAKQ 061715
RWRAKQ

REGIONAL WEATHER ROUNDUP
NATIONAL WEATHER SERVICE WAKEFIELD VA
1200 PM EST SAT FEB 06 2016

Note: "fair" indicates few or no clouds below 12,000 feet with no
significant weather and/or obstructions to visibility. * = Denotes
station may not report precipitation (e.g., rain,snow,etc.),
thunder or fog.

VAZ042-051-052>054-056-061800-
NORTHERN VIRGINIA

CITY           SKY/WX    TMP DP  RH WIND       PRES   REMARKS
WASH NATIONAL  PTSUNNY   41  24  51 S10       30.44F
DULLES         PTSUNNY   38  20  48 S14       30.41F
FORT BELVOIR   FAIR      40  20  44 VRB3      30.43F
QUANTICO       FAIR      39  25  57 S6        30.45F
FREDERICKSBRG* FAIR      41  20  43 SW8       30.43F
STAFFORD*      FAIR      39  17  41 S5        30.47F
WARRENTON      FAIR      40  25  53 S9        30.41F
CULPEPER*      FAIR      39  20  46 SW8       30.43F
MANASSAS*      SUNNY     37  21  52 S6        30.43F
LEESBURG*      FAIR      41  25  52 S13       30.40F
WINCHESTER     FAIR      43  21  42 S7        30.35F
FRONT ROYAL*   FAIR      41  16  36 S7        30.35F
LURAY*         FAIR      37  18  44 S12       30.36F
$$

VAZ048-049-060>072-079>083-061800-
CENTRAL AND SOUTH CENTRAL VIRGINIA

CITY           SKY/WX    TMP DP  RH WIND       PRES   REMARKS
RICHMOND       PTSUNNY   40  20  44 CALM      30.44F
CHESTERFIELD*  FAIR     N/A N/A N/A S3        30.45F
PETERSBURG*    FAIR      42  18  37 CALM      30.46F
HANOVER        FAIR      41  20  43 VRB6      30.45F
TAPPAHANNOCK*  FAIR      42  21  43 CALM      30.45F
QUINTON*       FAIR      41  22  46 CALM      30.44F
CHARLOTTSVILLE FAIR      41  18  39 S12       30.41F
GORDONSVILLE*  FAIR      39  20  46 SW9       30.41F
ORANGE*        FAIR      41  19  42 S3        30.43F
LOUISA*        FAIR      41  19  42 SW5       30.41F
BUMPASS*       FAIR      40  19  42 S5        30.44F
FARMVILLE*     FAIR      43  21  41 S7        30.42F
CREWE*         FAIR      39  20  45 CALM      30.43F
FORT PICKETT*  FAIR      40  18  40 SE3       30.43F
CHASE CITY*    FAIR      41  16  36 CALM      30.43F
CLARKSVILLE*   FAIR      41  19  42 CALM      30.43F
SOUTH HILL*    FAIR      39  18  42 CALM      30.49F
LAWRENCEVILLE* FAIR      39  22  48 N3        30.44F
EMPORIA*       FAIR      37  25  60 CALM      30.46F
$$

VAZ088>098-061800-
SOUTHEAST VIRGINIA

CITY           SKY/WX    TMP DP  RH WIND       PRES   REMARKS
NORFOLK        FAIR      42  28  57 N8        30.44F
VIRGINIA BEACH CLOUDY    47  28  47 NE7       30.43F
NORFOLK NAVAL  CLOUDY    42  25  50 N6        30.45F
WEST POINT*    FAIR      41  21  45 CALM      30.47F
SALUDA*        FAIR      39  27  60 CALM      30.45F
NEWPORT NEWS   FAIR      41  25  53 CALM      30.45F
LANGLEY AFB    FAIR      41  26  54 N2        30.43F
FORT EUSTIS    FAIR      41  22  47 VRB3      30.43F
WILLIAMSBURG*  FAIR      45  28  53 CALM      30.46F
HR EXEC AP*    FAIR      43  27  52 CALM      30.45F
FRANKLIN*      FAIR      40  25  56 CALM      30.45F
US460-WAKEFLD  FAIR      42  23  46 CALM      30.45F
$$

VAZ020-022-025-037-045-061800-
WEST CENTRAL AND SOUTHWEST VIRGINIA

CITY           SKY/WX    TMP DP  RH WIND       PRES   REMARKS
STAUNTON*      FAIR      42  19  40 S7        30.38F
WAYNESBORO*    FAIR      38  11  33 S3        30.35F
HOT SPRINGS VA FAIR      30  13  48 W7        30.23F
LYNCHBURG      FAIR      37  17  44 S8        30.42F
DANVILLE       FAIR      42  21  43 CALM      30.43F
SOUTH BOSTON*  FAIR      43  18  36 SE3       30.43F
MARTINSVILLE   FAIR      38  17  42 CALM      30.43F
ROANOKE        PTSUNNY   37  18  46 SE5       30.41F
BLACKSBURG     FAIR      34  22  61 CALM      30.38F
DUBLIN*        FAIR      37  19  48 S3        30.36F
MARION*        FAIR      38  11  33 SW5       30.34F
HILLSVILLE*    FAIR      35  13  40 SW6       30.31F
RICHLANDS*     FAIR      35  13  41 CALM      30.32F
WISE*          FAIR      41  10  28 W5        30.32F
ABINGDON*      FAIR      39  14  35 NW3       30.35F
$$

MDZ021>025-VAZ099-100-061800-
SOUTHERN MARYLAND AND THE DELMARVA PENINSULA

CITY           SKY/WX    TMP DP  RH WIND       PRES   REMARKS
PATUXENT RIVER CLOUDY    39  24  55 SE8       30.44F
BAY BRIDGE APT   N/A     41  19  42 CALM      30.43F
LEONARDTOWN    MOSUNNY   41  19  42 CALM      30.45F
DOVER          CLOUDY    40  24  54 SW8       30.42F
GEORGETOWN     CLOUDY    41  21  44 SW7       30.44F
EASTON         PTSUNNY   39  21  48 CALM      30.48F
CAMBRIDGE      MOSUNNY   39  21  48 SW7       30.43F
SALISBURY      MOSUNNY   41  25  53 S7        30.44F
OCEAN CITY     MOSUNNY   39  28  64 SE6       30.45F
WALLOPS ISLAND FAIR      43  27  53 SE9       30.45F
ACCOMACK*      PTSUNNY   41  25  52 CALM      30.45F
$$

NCZ012>017-030>032-061800-
NORTH CENTRAL AND EASTERN NORTH CAROLINA

CITY           SKY/WX    TMP DP  RH WIND       PRES   REMARKS
ROANOKE RAPIDS FAIR      41  25  52 CALM      30.44F
RALEIGH        CLOUDY    43  19  38 CALM      30.43F
ELIZABETH CITY MOSUNNY   44  28  53 N6        30.43F
AHOSKIE*       CLOUDY    41  23  49 NE5       30.43F
EDENTON*       MOSUNNY   45  31  57 N7        30.41F
CURRITUCK*     MOSUNNY   43  29  58 NE5       30.44F
KILL DEVIL HLS MOSUNNY   46  29  52 N6        30.41F
MANTEO         MOSUNNY   44  29  57 N8        30.43F
CAPE HATTERAS  CLOUDY    46  32  58 NE9G21    30.39F
TARBORO*       FAIR      47  24  41 N3        30.43F
GOLDSBORO      PTSUNNY   45  21  39 N5        30.40F
WASHINGTON     MOSUNNY   44  27  50 CALM      30.41F
GREENVILLE     CLOUDY    43  27  52 N6        30.42F
NEW BERN       CLOUDY    46  25  43 N8        30.42F
WILMINGTON     PTSUNNY   48  26  42 NE10      30.38F
$$

VAZ048-061800-
ELSEWHERE

CITY           SKY/WX    TMP DP  RH WIND       PRES   REMARKS
HARRISBURG PA  PTSUNNY   40  20  44 SW12G18   30.37F
BALTIMORE      CLOUDY    40  19  43 S8        30.41F
ANNAPOLIS      CLOUDY    40  23  50 SE9       30.43F
ANDREWS AFB    FAIR      41  22  46 S5        30.41F
PHILADELPHIA   PTSUNNY   39  17  41 SW10      30.42F
HENDERSON NC   CLOUDY    41  16  36 NE5       30.42F
GREENSBORO     PTSUNNY   42  16  34 CALM      30.39F
ROCKY MOUNT    MOSUNNY   43  22  43 N8        30.43F
$$

VAZ100-061800-
MARINE

STATION/POSITION TIME  TEMP    WIND        PRES    WAVE   SWELL
                       AIR SEA DIR/SP/G            HT/PER HT/PER
                 (UTC) (F)     (DEG/KT/KT) (MB)    (FT/S) (FT/S)
BRANDYWINE LGT   1600   36     230/  6/  7 1031.8R
CAPE MAY NJ      1600   38 42  240/  6/  8 1031.4S
LEWES DE         1600   40 42  220/  3/  6 1031.5F
15NM E FENWICK I 1650   40 45              1031.5F   3/ 9
OCEAN-CITY-INLET 1600   39 41  170/  2/  3 1031.2S
WACHAPREAGUE VA  1600   42 43  220/  3/  5 1032.0R
THOMAS POINT MD  1600   36 38  170/  9/  9 1032.2F
GOOSES REEF MD   1700   38 40  180/  8/ 10 1031.7F   0
COVE POINT MD    1600   36     180/  6/  7 1032.6F
SOLOMONS ISLAND  1600   37 40   90/  4/  5   N/A
BISHOPS HEAD MD  1600   38 40  130/  3/  3 1031.1F
POTOMAC MD       1700   38 42  150/  2/  4 1030.3F   0
CAMBRIDGE MD     1600   40 40  150/  2/  6 1031.1F
LEWISETTA VA     1600   38 42   90/  3/  4 1031.8F
RAPPAHANNOCK LGT 1600          260/  3/  3 1032.3F
STINGRAY PT      1700   39 43   80/  2/  4 1031.1F   0
YORK RVR RNG VA  1600   40      60/  1/  2 1031.5S
YORKTOWN VA      1600   39 44   50/  3/  4 1031.7F
JAMESTOWN VA     1700   40 43   CALM  /  2   N/A     0
DOMINION TERM VA 1600   40        CALM     1031.8F
KIPTOPEKE VA     1600      44  320/  6/  7   N/A
CHES BAY BRIDGE  1600   39 43  330/  4/  5 1031.5F
CAPE HENRY VA    1600   39     330/  8/  9   N/A
CHESAPEAKE LGHT  1600   40      20/  4/  5 1032.2S
WILLOUBY STN VA  1600   39      10/  2/  3 1027.5S
CAPE HENRY BUOY  1628      46                N/A     3/10   2/11
1ST LANDING BUOY 1700      44                N/A     1/ 4
CAPE CHARLES BUO 1626      45                N/A     3/ 9   3/ 9
OFFSHORE WE BUOY 1621      49                N/A     4/ 9   5/ 9
64NM E OF VA BCH 1650   44 54   20/ 12/ 14 1029.5F   5/ 8   5/ 8
DUCK PIER NC     1600   41 45   10/  7/  9 1030.4F
44100 DUCK FRF   1624      46                N/A     5/ 9   2/11
44056 DUCK FRF   1611      45                N/A     4/10   2/11
OREGON INLET NC  1600   44 45  350/  8/ 12 1030.5F
HATTERAS NC      1600   43 54  360/ 16/ 18 1029.9F
DIAMOND SHLS NC  1650   48 72   10/ 17/ 21 1028.8F   6/11   5/11
$$



USA.gov is the U.S. government's official web portal to all federal, state and local government web resources and services.